GW1010 Weather Reports


Display with metric or nautical units.
time (UTC)temp
F
wind
direction
speed
MPH
gust
MPH
rain 1hr
in
rain 24hr
in
rain mn
in
humidity
%
barometer
mb
20260904181551 75 320 0.0 4.0 0.00 0.00 0.00 61 1014.9
20260904181030 74 0 0.0 3.0 0.00 0.00 0.00 64 1015.0
20260904180531 74 302 1.0 3.0 0.00 0.00 0.00 63 1015.1
20260904180056 74 0 0.0 3.0 0.00 0.00 0.00 65 1015.1
20260904175525 73 0 0.0 2.0 0.00 0.00 0.00 66 1015.2
20260904175026 72 238 0.0 3.0 0.00 0.00 0.00 68 1015.2
20260904174553 71 190 0.0 3.0 0.00 0.00 0.00 68 1015.2
20260904174029 71 307 0.0 4.0 0.00 0.00 0.00 70 1015.2
20260904173527 70 340 1.0 4.0 0.00 0.00 0.00 70 1015.2
20260904173049 70 328 0.0 3.0 0.00 0.00 0.00 70 1015.2
20260904172528 70 309 1.0 3.0 0.00 0.00 0.00 70 1015.1
20260904172028 70 190 2.0 3.0 0.00 0.00 0.00 69 1015.1
20260904171551 70 195 1.0 3.0 0.00 0.00 0.00 71 1015.0
20260904171027 69 195 0.0 2.0 0.00 0.00 0.00 72 1015.0
20260904170526 69 0 1.0 4.0 0.00 0.00 0.00 72 1015.0
20260904170055 69 193 0.0 4.0 0.00 0.00 0.00 73 1015.0
20260904165533 69 155 0.0 4.0 0.00 0.00 0.00 72 1015.0
20260904165026 69 0 0.0 0.0 0.00 0.00 0.00 74 1015.0
20260904164557 67 0 0.0 1.0 0.00 0.00 0.00 78 1015.0
20260904164028 66 0 0.0 3.0 0.00 0.00 0.00 79 1015.0
20260904163531 65 0 0.0 3.0 0.00 0.00 0.00 80 1015.1
20260904163050 65 243 0.0 3.0 0.00 0.00 0.00 80 1015.1
20260904162525 65 236 0.0 2.0 0.00 0.00 0.00 81 1015.0
20260904162028 64 0 0.0 0.0 0.00 0.00 0.00 84 1015.0
20260904161544 62 0 0.0 0.0 0.00 0.00 0.00 84 1015.1
20260904161028 62 0 0.0 0.0 0.00 0.00 0.00 82 1015.1
20260904160527 61 0 0.0 0.0 0.00 0.00 0.00 83 1015.1
20260904160051 61 0 0.0 0.0 0.00 0.00 0.00 83 1015.1
20260904155524 60 0 0.0 0.0 0.00 0.00 0.00 84 1015.2
20260904155027 60 0 0.0 0.0 0.00 0.00 0.00 84 1015.1
20260904154557 60 0 0.0 0.0 0.00 0.00 0.00 84 1015.1
20260904154030 59 0 0.0 0.0 0.00 0.00 0.00 85 1015.1
20260904153529 59 0 0.0 0.0 0.00 0.00 0.00 85 1015.1
20260904153054 58 0 0.0 0.0 0.00 0.00 0.00 85 1015.2
20260904152530 58 0 0.0 0.0 0.00 0.00 0.00 86 1015.2
20260904152028 58 0 0.0 0.0 0.00 0.00 0.00 87 1015.1
20260904151545 57 0 0.0 0.0 0.00 0.00 0.00 87 1015.1
20260904151028 57 0 0.0 0.0 0.00 0.00 0.00 88 1015.1
20260904150530 56 0 0.0 0.0 0.00 0.00 0.00 88 1015.0
20260904150054 56 0 0.0 0.0 0.00 0.00 0.00 88 1015.0
20260904145530 56 0 0.0 0.0 0.00 0.00 0.00 89 1015.0
20260904145027 55 0 0.0 0.0 0.00 0.00 0.00 89 1014.9
20260904144550 55 0 0.0 0.0 0.00 0.00 0.00 89 1014.8
20260904144028 55 0 0.0 0.0 0.00 0.00 0.00 90 1014.8
20260904143528 54 0 0.0 0.0 0.00 0.00 0.00 90 1014.8
20260904143046 54 0 0.0 0.0 0.00 0.00 0.00 91 1014.7
20260904142526 54 0 0.0 0.0 0.00 0.00 0.00 91 1014.7
20260904142027 53 0 0.0 0.0 0.00 0.00 0.00 92 1014.6
20260904141544 53 0 0.0 0.0 0.00 0.00 0.00 93 1014.6
20260904141027 53 0 0.0 0.0 0.00 0.00 0.00 94 1014.6
20260904140524 52 0 0.0 0.0 0.00 0.00 0.00 94 1014.6
20260904140059 52 0 0.0 0.0 0.00 0.00 0.00 95 1014.6
20260904135528 52 0 0.0 0.0 0.00 0.00 0.00 95 1014.5
20260904135030 51 0 0.0 0.0 0.00 0.00 0.00 95 1014.5
20260904134543 51 0 0.0 0.0 0.00 0.00 0.00 95 1014.4
20260904134031 51 0 0.0 0.0 0.00 0.00 0.00 95 1014.4
20260904133528 51 0 0.0 0.0 0.00 0.00 0.00 95 1014.4
20260904133049 50 0 0.0 0.0 0.00 0.00 0.00 95 1014.4
20260904132531 50 0 0.0 0.0 0.00 0.00 0.00 95 1014.4
20260904132031 50 0 0.0 0.0 0.00 0.00 0.00 95 1014.4
20260904131546 49 0 0.0 0.0 0.00 0.00 0.00 95 1014.3
20260904131025 49 0 0.0 0.0 0.00 0.00 0.00 95 1014.3
20260904130527 49 0 0.0 0.0 0.00 0.00 0.00 95 1014.1
20260904130050 49 0 0.0 0.0 0.00 0.00 0.00 94 1014.1
20260904125528 49 0 0.0 0.0 0.00 0.00 0.00 95 1014.1
20260904125027 49 0 0.0 0.0 0.00 0.00 0.00 95 1014.1
20260904124550 49 0 0.0 0.0 0.00 0.00 0.00 95 1014.1
20260904124028 49 0 0.0 0.0 0.00 0.00 0.00 95 1014.0
20260904123533 49 0 0.0 0.0 0.00 0.00 0.00 95 1014.0
20260904123046 49 0 0.0 0.0 0.00 0.00 0.00 94 1014.0
20260904122527 49 0 0.0 0.0 0.00 0.00 0.00 94 1013.9
20260904122030 49 0 0.0 0.0 0.00 0.00 0.00 94 1013.9
20260904121541 49 0 0.0 0.0 0.00 0.00 0.00 94 1013.9
20260904121029 49 0 0.0 0.0 0.00 0.00 0.00 94 1013.9
20260904120529 49 0 0.0 0.0 0.00 0.00 0.00 94 1013.9
20260904120056 49 0 0.0 0.0 0.00 0.00 0.00 94 1013.9
20260904115528 49 0 0.0 0.0 0.00 0.00 0.00 94 1014.0
20260904115027 49 0 0.0 0.0 0.00 0.00 0.00 94 1013.9
20260904114548 50 0 0.0 0.0 0.00 0.00 0.00 94 1013.9
20260904114030 50 0 0.0 0.0 0.00 0.00 0.00 94 1013.9
20260904113526 50 0 0.0 0.0 0.00 0.00 0.00 93 1013.9
20260904113056 50 0 0.0 0.0 0.00 0.00 0.00 93 1013.9
20260904112532 50 0 0.0 0.0 0.00 0.00 0.00 94 1014.0
20260904112027 50 0 0.0 0.0 0.00 0.00 0.00 94 1014.0
20260904111555 50 0 0.0 0.0 0.00 0.00 0.00 93 1014.0
20260904111025 50 0 0.0 0.0 0.00 0.00 0.00 93 1013.9
20260904110526 50 0 0.0 0.0 0.00 0.00 0.00 93 1014.0
20260904110054 51 0 0.0 0.0 0.00 0.00 0.00 93 1013.9
20260904105527 51 0 0.0 0.0 0.00 0.00 0.00 93 1013.9
20260904105027 51 0 0.0 0.0 0.00 0.00 0.00 93 1013.9
20260904104549 51 0 0.0 0.0 0.00 0.00 0.00 92 1014.0
20260904104028 51 0 0.0 0.0 0.00 0.00 0.00 92 1014.0
20260904103526 51 0 0.0 0.0 0.00 0.00 0.00 92 1013.9
20260904103046 51 0 0.0 0.0 0.00 0.00 0.00 92 1013.9
20260904102531 52 0 0.0 0.0 0.00 0.00 0.00 92 1013.8
20260904102027 52 0 0.0 0.0 0.00 0.00 0.00 91 1013.8
20260904101554 52 0 0.0 0.0 0.00 0.00 0.00 91 1013.8
20260904101026 53 0 0.0 0.0 0.00 0.00 0.00 92 1013.8
20260904100525 53 0 0.0 0.0 0.00 0.00 0.00 92 1013.8
20260904100103 53 0 0.0 0.0 0.00 0.00 0.00 92 1013.8
20260904095528 54 0 0.0 0.0 0.00 0.00 0.00 92 1013.7
20260904095028 54 0 0.0 0.0 0.00 0.00 0.00 92 1013.8
20260904094548 54 0 0.0 0.0 0.00 0.00 0.00 92 1013.8
20260904094027 54 0 0.0 0.0 0.00 0.00 0.00 91 1013.8
20260904093528 55 0 0.0 0.0 0.00 0.00 0.00 91 1013.8
20260904093057 55 0 0.0 0.0 0.00 0.00 0.00 91 1013.8
20260904092528 55 0 0.0 0.0 0.00 0.00 0.00 91 1013.8
20260904092029 55 0 0.0 0.0 0.00 0.00 0.00 92 1013.8
20260904091549 55 0 0.0 0.0 0.00 0.00 0.00 92 1013.8
20260904091027 55 0 0.0 0.0 0.00 0.00 0.00 92 1013.8
20260904090527 55 0 0.0 0.0 0.00 0.00 0.00 92 1013.9
20260904090044 55 0 0.0 0.0 0.00 0.00 0.00 92 1013.8
20260904085527 55 0 0.0 0.0 0.00 0.00 0.00 92 1013.9
20260904085026 55 0 0.0 1.0 0.00 0.00 0.00 92 1013.9
20260904084544 55 0 0.0 1.0 0.00 0.00 0.00 92 1013.9
20260904084030 55 0 0.0 0.0 0.00 0.00 0.00 92 1013.9
20260904083525 55 0 0.0 0.0 0.00 0.00 0.00 92 1013.9
20260904083049 55 0 0.0 0.0 0.00 0.00 0.00 92 1014.0
20260904082527 55 0 0.0 0.0 0.00 0.00 0.00 91 1014.0
20260904082028 55 0 0.0 0.0 0.00 0.00 0.00 91 1014.0
20260904081545 55 0 0.0 0.0 0.00 0.00 0.00 90 1014.0
20260904081027 55 0 0.0 0.0 0.00 0.00 0.00 89 1014.0
20260904080528 56 0 0.0 0.0 0.00 0.00 0.00 90 1014.0
20260904080048 56 0 0.0 0.0 0.00 0.00 0.00 90 1014.1
20260904075526 56 0 0.0 0.0 0.00 0.00 0.00 89 1014.1
20260904075026 56 0 0.0 0.0 0.00 0.00 0.00 89 1014.1
20260904074548 57 0 0.0 0.0 0.00 0.00 0.00 89 1014.0
20260904074028 57 0 0.0 0.0 0.00 0.00 0.00 89 1014.1
20260904073528 57 0 0.0 0.0 0.00 0.00 0.00 89 1014.0
20260904073057 57 0 0.0 0.0 0.00 0.00 0.00 89 1014.0
20260904072528 57 0 0.0 0.0 0.00 0.00 0.00 88 1014.0
20260904072031 57 0 0.0 0.0 0.00 0.00 0.00 88 1014.0
20260904071552 57 0 0.0 0.0 0.00 0.00 0.00 88 1013.9
20260904071027 57 0 0.0 0.0 0.00 0.00 0.00 87 1014.0
20260904070527 58 0 0.0 0.0 0.00 0.00 0.00 87 1014.0
20260904070048 58 0 0.0 0.0 0.00 0.00 0.00 87 1014.1
20260904065527 58 0 0.0 0.0 0.00 0.00 0.00 88 1014.0
20260904065025 58 0 0.0 2.0 0.00 0.00 0.00 88 1014.1
20260904064544 58 0 0.0 2.0 0.00 0.00 0.00 88 1014.1
20260904064027 58 153 0.0 1.0 0.00 0.00 0.00 89 1014.0
20260904063526 58 0 0.0 2.0 0.00 0.00 0.00 89 1014.0
20260904063045 58 0 0.0 2.0 0.00 0.00 0.00 89 1014.0
20260904062527 58 0 0.0 0.0 0.00 0.00 0.00 89 1013.9
20260904062027 58 0 0.0 0.0 0.00 0.00 0.00 89 1013.9
20260904061548 58 0 0.0 1.0 0.00 0.00 0.00 89 1013.9
20260904061028 58 0 0.0 1.0 0.00 0.00 0.00 89 1013.9
20260904060528 58 153 0.0 1.0 0.00 0.00 0.00 89 1013.8
20260904060048 58 0 0.0 0.0 0.00 0.00 0.00 88 1013.8
20260904055525 58 0 0.0 0.0 0.00 0.00 0.00 88 1013.8
20260904055027 58 0 0.0 0.0 0.00 0.00 0.00 88 1013.9
20260904054543 58 0 0.0 0.0 0.00 0.00 0.00 87 1013.8
20260904054025 59 0 0.0 0.0 0.00 0.00 0.00 87 1013.9
20260904053527 59 0 0.0 0.0 0.00 0.00 0.00 87 1013.9
20260904053043 59 0 0.0 0.0 0.00 0.00 0.00 86 1013.9
20260904052528 59 0 0.0 0.0 0.00 0.00 0.00 86 1013.9
20260904052028 59 0 0.0 0.0 0.00 0.00 0.00 86 1013.9
20260904051600 59 0 0.0 0.0 0.00 0.00 0.00 85 1014.0
20260904051027 60 0 0.0 1.0 0.00 0.00 0.00 85 1014.0
20260904050528 60 0 0.0 1.0 0.00 0.00 0.00 85 1014.1
20260904050050 60 0 0.0 2.0 0.00 0.00 0.00 84 1014.1
20260904045528 60 225 0.0 2.0 0.00 0.00 0.00 84 1014.0
20260904045026 60 0 0.0 1.0 0.00 0.00 0.00 83 1014.1
20260904044547 60 0 0.0 1.0 0.00 0.00 0.00 83 1014.0
20260904044027 60 0 0.0 3.0 0.00 0.00 0.00 82 1013.9
20260904043525 60 0 0.0 3.0 0.00 0.00 0.00 82 1013.8
20260904043043 60 246 1.0 4.0 0.00 0.00 0.00 82 1013.7
20260904042529 61 218 1.0 4.0 0.00 0.00 0.00 82 1013.7
20260904042028 60 219 1.0 4.0 0.00 0.00 0.00 82 1013.6
20260904041552 61 0 0.0 2.0 0.00 0.00 0.00 82 1013.6
20260904041028 61 0 0.0 2.0 0.00 0.00 0.00 81 1013.6
20260904040527 61 0 0.0 1.0 0.00 0.00 0.00 80 1013.5
20260904040050 61 176 0.0 1.0 0.00 0.00 0.00 80 1013.4
20260904035528 62 0 0.0 4.0 0.00 0.00 0.00 79 1013.3
20260904035027 62 0 0.0 4.0 0.00 0.00 0.00 79 1013.2
20260904034543 62 224 1.0 4.0 0.00 0.00 0.00 78 1013.1
20260904034027 62 187 0.0 3.0 0.00 0.00 0.00 78 1013.1
20260904033525 62 242 0.0 3.0 0.00 0.00 0.00 78 1013.0
20260904033050 62 121 1.0 3.0 0.00 0.00 0.00 77 1013.0
20260904032528 62 137 1.0 3.0 0.00 0.00 0.00 76 1013.0
20260904032028 63 0 0.0 3.0 0.00 0.00 0.00 76 1012.9
20260904031555 63 122 1.0 3.0 0.00 0.00 0.00 75 1012.9
20260904031028 63 12 0.0 4.0 0.00 0.00 0.00 74 1012.8
20260904030529 63 200 1.0 4.0 0.00 0.00 0.00 73 1012.8
20260904030049 64 150 1.0 4.0 0.00 0.00 0.00 73 1012.8
20260904025527 64 71 2.0 4.0 0.00 0.00 0.00 72 1012.7
20260904025026 64 63 1.0 4.0 0.00 0.00 0.00 72 1012.7
20260904024545 65 0 1.0 4.0 0.00 0.00 0.00 71 1012.7
20260904024029 65 0 0.0 5.0 0.00 0.00 0.00 70 1012.7
20260904023529 65 224 1.0 5.0 0.00 0.00 0.00 69 1012.6
20260904023043 66 164 1.0 5.0 0.00 0.00 0.00 68 1012.6
20260904022527 66 184 0.0 4.0 0.00 0.00 0.00 66 1012.6
20260904022028 67 137 1.0 4.0 0.00 0.00 0.00 65 1012.6
20260904021549 67 0 0.0 3.0 0.00 0.00 0.00 64 1012.6
20260904021030 68 174 0.0 3.0 0.00 0.00 0.00 62 1012.5
20260904020528 68 186 0.0 2.0 0.00 0.00 0.00 62 1012.5
20260904020050 69 161 0.0 2.0 0.00 0.00 0.00 61 1012.5
20260904015527 69 0 0.0 2.0 0.00 0.00 0.00 60 1012.5
20260904015029 70 155 0.0 3.0 0.00 0.00 0.00 59 1012.7
20260904014559 70 181 0.0 4.0 0.00 0.00 0.00 58 1012.7
20260904014026 71 123 1.0 4.0 0.00 0.00 0.00 56 1012.7
20260904013525 71 139 1.0 5.0 0.00 0.00 0.00 54 1012.7
20260904013045 72 221 1.0 5.0 0.00 0.00 0.00 54 1012.7
20260904012529 73 0 0.0 3.0 0.00 0.00 0.00 53 1012.8
20260904012028 73 97 1.0 3.0 0.00 0.00 0.00 51 1012.7
20260904011545 74 0 1.0 4.0 0.00 0.00 0.00 50 1012.7
20260904011030 75 112 0.0 4.0 0.00 0.00 0.00 49 1012.8
20260904010527 75 109 1.0 4.0 0.00 0.00 0.00 48 1012.8
20260904010105 76 218 0.0 6.0 0.00 0.00 0.00 48 1012.8
20260904005528 76 0 1.0 6.0 0.00 0.00 0.00 49 1012.8
20260904005026 76 208 1.0 8.0 0.00 0.00 0.00 48 1012.8
20260904004545 76 228 1.0 8.0 0.00 0.00 0.00 48 1012.8
20260904004026 76 211 2.0 8.0 0.00 0.00 0.00 47 1012.8
20260904003529 76 241 2.0 8.0 0.00 0.00 0.00 48 1012.8
20260904003043 77 98 3.0 8.0 0.00 0.00 0.00 46 1012.8
20260904002528 77 260 1.0 7.0 0.00 0.00 0.00 46 1012.8
20260904002032 77 108 0.0 8.0 0.00 0.00 0.00 47 1012.7
20260904001544 77 248 2.0 8.0 0.00 0.00 0.00 46 1012.7
20260904001028 77 224 1.0 6.0 0.00 0.00 0.00 47 1012.7
20260904000528 77 74 2.0 6.0 0.00 0.00 0.00 47 1012.7
20260904000055 77 157 2.0 11.0 0.00 0.00 0.00 48 1012.8
20260903235528 77 103 2.0 11.0 0.00 0.00 0.00 48 1012.8
20260903235026 77 64 2.0 9.0 0.00 0.00 0.00 49 1012.8
20260903234549 78 226 2.0 9.0 0.00 0.00 0.00 48 1012.8
20260903234027 78 211 2.0 9.0 0.00 0.00 0.00 47 1012.9
20260903233526 78 290 3.0 9.0 0.00 0.00 0.00 47 1012.9
20260903233043 79 92 2.0 9.0 0.00 0.00 0.00 46 1013.0
20260903232527 79 239 2.0 10.0 0.00 0.00 0.00 46 1013.0
20260903232028 79 191 2.0 10.0 0.00 0.00 0.00 46 1013.0
20260903231544 79 95 2.0 6.0 0.00 0.00 0.00 46 1013.0
20260903231028 79 60 1.0 6.0 0.00 0.00 0.00 46 1013.0
20260903230527 79 26 1.0 8.0 0.00 0.00 0.00 47 1013.1
20260903230043 79 276 3.0 8.0 0.00 0.00 0.00 46 1013.1
20260903225530 79 160 3.0 10.0 0.00 0.00 0.00 45 1013.1
20260903225027 80 96 3.0 10.0 0.00 0.00 0.00 46 1013.2
20260903224553 80 179 2.0 8.0 0.00 0.00 0.00 46 1013.2
20260903224027 81 98 3.0 8.0 0.00 0.00 0.00 45 1013.2
20260903223527 81 200 3.0 8.0 0.00 0.00 0.00 45 1013.3
20260903223051 81 108 3.0 8.0 0.00 0.00 0.00 44 1013.3
20260903222530 82 231 2.0 7.0 0.00 0.00 0.00 44 1013.3
20260903222029 82 143 2.0 8.0 0.00 0.00 0.00 43 1013.4
20260903221559 82 0 1.0 8.0 0.00 0.00 0.00 44 1013.4
20260903221026 82 30 3.0 7.0 0.00 0.00 0.00 43 1013.4
20260903220528 82 236 2.0 8.0 0.00 0.00 0.00 43 1013.6
20260903220051 83 282 2.0 8.0 0.00 0.00 0.00 43 1013.5
20260903215529 83 356 1.0 6.0 0.00 0.00 0.00 43 1013.6
20260903215028 83 248 2.0 9.0 0.00 0.00 0.00 43 1013.6
20260903214551 83 302 3.0 9.0 0.00 0.00 0.00 42 1013.5
20260903214027 83 212 1.0 5.0 0.00 0.00 0.00 43 1013.6
20260903213527 82 72 1.0 8.0 0.00 0.00 0.00 43 1013.6
20260903213052 82 225 3.0 8.0 0.00 0.00 0.00 43 1013.6
20260903212528 83 216 2.0 8.0 0.00 0.00 0.00 42 1013.6
20260903212027 83 347 3.0 7.0 0.00 0.00 0.00 43 1013.6
20260903211547 83 274 1.0 5.0 0.00 0.00 0.00 44 1013.6
20260903211027 82 243 1.0 10.0 0.00 0.00 0.00 45 1013.7
20260903210528 83 231 4.0 10.0 0.00 0.00 0.00 44 1013.8
20260903205527 83 57 3.0 9.0 0.00 0.00 0.00 43 1013.8
20260903205028 83 219 1.0 9.0 0.00 0.00 0.00 44 1013.7
20260903204607 83 16 2.0 6.0 0.00 0.00 0.00 44 1013.8
20260903204028 83 150 2.0 6.0 0.00 0.00 0.00 44 1013.8
20260903203526 82 348 0.0 6.0 0.00 0.00 0.00 45 1013.8
20260903203050 82 270 1.0 4.0 0.00 0.00 0.00 42 1013.8
20260903202528 82 351 2.0 5.0 0.00 0.00 0.00 41 1013.8
20260903202030 82 145 2.0 5.0 0.00 0.00 0.00 40 1013.9
20260903201557 81 240 1.0 3.0 0.00 0.00 0.00 42 1013.9
20260903201028 80 115 1.0 4.0 0.00 0.00 0.00 44 1014.0
20260903200528 80 304 1.0 4.0 0.00 0.00 0.00 42 1014.1
20260903200058 81 284 1.0 2.0 0.00 0.00 0.00 42 1014.2
20260903195527 80 278 1.0 3.0 0.00 0.00 0.00 44 1014.2
20260903195025 80 270 0.0 3.0 0.00 0.00 0.00 44 1014.3
20260903194552 80 226 1.0 3.0 0.00 0.00 0.00 44 1014.4
20260903194030 79 126 0.0 3.0 0.00 0.00 0.00 46 1014.5
20260903193528 78 330 1.0 3.0 0.00 0.00 0.00 44 1014.6
20260903193054 78 0 0.0 4.0 0.00 0.00 0.00 46 1014.6
20260903192525 77 337 2.0 3.0 0.00 0.00 0.00 46 1014.8
20260903192026 77 0 0.0 4.0 0.00 0.00 0.00 48 1015.0
20260903191546 76 297 1.0 5.0 0.00 0.00 0.00 48 1015.1
20260903191028 76 235 2.0 5.0 0.00 0.00 0.00 49 1015.2
20260903190526 76 351 2.0 4.0 0.00 0.00 0.00 46 1015.2
20260903190046 76 0 1.0 3.0 0.00 0.00 0.00 49 1015.3
20260903185525 75 232 1.0 3.0 0.00 0.00 0.00 50 1015.4
20260903185026 75 242 0.0 3.0 0.00 0.00 0.00 51 1015.5
20260903184544 75 8 1.0 3.0 0.00 0.00 0.00 48 1015.7
20260903184030 75 126 0.0 3.0 0.00 0.00 0.00 50 1015.8
20260903183527 75 345 1.0 3.0 0.00 0.00 0.00 51 1016.0
20260903183048 75 125 0.0 2.0 0.00 0.00 0.00 50 1016.1
20260903182527 74 0 0.0 3.0 0.00 0.00 0.00 53 1016.1